Tracking 28514 objects as of 23-Feb-2024
HD Live streaming from Space Station
objects crossing your sky now

STARLINK-4465

Track STARLINK-4465 now!
10-day predictions
STARLINK-4465 is classified as:


NORAD ID: 53496
Int'l Code: 2022-099AH
Perigee: 568.5 km
Apogee: 571.7 km
Inclination: 97.7 °
Period: 95.9 minutes
Semi major axis: 6941 km
RCS: Unknown
Launch date: August 12, 2022
Source: United States (US)
Launch site: AIR FORCE WESTERN TEST RANGE (AFWTR)
Your satellite tracking list
Your tracking list is empty




NASA's NSSDC Master Catalog

Two Line Element Set (TLE):
1 53496U 22099AH  24054.31161314  .00009590  00000-0  74985-3 0  9993
2 53496  97.6541 176.7904 0002307 257.2557 102.8410 15.01275973 84390
Source of the keplerian elements: AFSPC